STARLINK-1770, 46383

Orbit data source: Space-Track

STARLINK-1770, 46383 is a payload satellite owned by SpaceX/Seattle (US) in LEO that was launched on Thu, 03 Sep 2020 UTC via an FALCON 9 launch vehicle from the Air Force Eastern Test Range (AFETR). Payloads include a variety of satellites, spacecraft, and rockets equipped with specific instruments for various scientific and technological missions. These include communications satellites like Starlink; space stations such as the ISS; scientific satellites like the Hubble; Earth observation satellites from companies like Planet Labs, Umbra, and HawkEye 360; GPS; miniature CubeSats for education and research; and military/defense satellites.

Loading next visibility...
STARLINK-1770 details
Identifier
46383, 2020-062BL
Orbit
LEO
Last TLE update17 hours ago
Origin
Flag of USSpaceX/Seattle (US)
ManufacturerSpaceX/Seattle
MissionOperational Commercial Communications
Bus & MotorSTARLINK, Unknown motor
Mass260 kg wet, ~248 kg dry
Launch date (UTC)
2020-09-03 (4 years ago)
Launch vehicle
FALCON 9
Launch site
Air Force Eastern Test Range (AFETR)
Object type
Payload
Rocket body
Debris
Shape & HBRBox + 1 Pan, 8.86 m
Radar Cross Section13.562 m², Large (>1 m²)

Expand to show TLE details & history

TLE from 17 hours ago
0 STARLINK-1770
1 46383U 20062BL  24347.72495681  .00004441  00000-0  31688-3 0  9998
2 46383  53.0535 245.5646 0002221  90.6414 269.4830 15.06399907236181
Epoch: 2024-12-12T17:23Z
Definitive object data (Epoch: 2024-12-12T17:23:56.268Z)
Latitude0.00003°
Longitude-97.321°
Altitude548.105 km
Speed7.589 km/s
True Right ascension16h 22m 15s
True Declination0° 00' 00"
Sunlit
Object was in daylight at TLE epoch
Visualization TLE readout
Latitude8.748°
Longitude72.95071°
Altitude546.993 km
Speed7.591 km/s
Apparent Right ascension00h 59m 28s
Apparent Declination-22° 58' 35"
Sunlit
Object is in full shadow
Visualization observer readout
Local Sidereal Time08:34:00
Azimuth265.758° W
Elevation-32.246°
Doppler factor1
Orbital elements
Apogee altitude549.021 km
Perigee altitude545.945 km
Semi-major axis6,925.62 km
Eccentricity0.0002221
Inclination53.0535°
RAAN245.5646°
Arg. of periapsis90.6414°
True anomaly269.45755°
Mean anomaly269.483°
Eccentric anomaly269.47028°
Mean motion3.76578 °/min
BSTAR0.00031688
Orbital period95.6 mins
Loading maneuver chart data...
Loading historical data...
Loading historical data...
Loading historical data...
Loading historical data...
Loading historical data...
Loading historical data...
Loading historical data...

STARLINK-1770 Visibility forecast

Observer location: undefined°, undefined

Span
Click to sort rows by Start time (UTC) header in descending order
Start Az.
Max El. time (UTC)
Max El. Az.
Max El.
End time (UTC)
End Az.
6 mins2024-12-13 19:01:08.281Z185.402° SSW2024-12-13 19:04:08.281Z137.496° SSE23.069°2024-12-13 19:07:08.281Z79.897° E
6 mins2024-12-13 20:41:08.281Z259.498° W2024-12-13 20:44:08.281Z343.569° N35.023°2024-12-13 20:47:08.281Z37.924° NE
6 mins2024-12-14 01:43:08.281Z335.626° NNW2024-12-14 01:45:08.281Z15.394° NNE26.988°2024-12-14 01:49:08.281Z92.201° ESE
5 mins2024-12-14 03:23:08.281Z284.135° WNW2024-12-14 03:25:08.281Z228.294° WSW34.279°2024-12-14 03:28:08.281Z159.805° S
|